This demonstration page uses our WeatherBlox Daily Observations layout. Learn more.

Hourly Observations for January 10, 2020

Temp ( °F °C ) Dew Point ( °F °C ) Humidity (%) Winds ( mph kmh ) Pressure ( in mb ) Visibility ( mi km ) Precip ( " mm )
12:15 am 00:15 Mostly Cloudy 31 -0.7 30 -1.2 96 96 E 9 15 30.04 1017 10 16.0934 0 0
12:35 am 00:35 Cloudy 30 -1 30 -1.3 98 98 E 7 11 30.05 1018 10 16.0934 0 0
12:55 am 00:55 Cloudy 30 -1 29 -1.5 96 96 E 6 9 30.04 1017 10 16.0934 0 0
1:15 am 01:15 Cloudy 30 -1.2 29 -1.5 98 98 ENE 8 13 30.04 1017 10 16.0934 0 0
1:35 am 01:35 Cloudy 29 -1.4 29 -1.6 99 99 ENE 9 15 30.04 1017 10 16.0934 0 0
1:55 am 01:55 Cloudy 29 -1.5 29 -1.6 99 99 ENE 10 17 30.04 1017 10 16.0934 0 0
2:15 am 02:15 Cloudy 29 -1.5 29 -1.6 99 99 NE 10 17 30.04 1017 7 11.26538 0 0
2:35 am 02:35 Cloudy 29 -1.5 29 -1.6 99 99 NE 8 13 30.05 1018 7 11.26538 0 0
2:55 am 02:55 Cloudy with Mist and Fog 29 -1.6 29 -1.6 100 100 ENE 10 17 30.05 1018 5 8.0467 0 0
3:15 am 03:15 Cloudy with Mist and Fog 29 -1.7 29 -1.7 100 100 NE 15 24 30.06 1018 3 4.82802 0 0
3:35 am 03:35 Cloudy with Mist and Fog 28 -2 28 -2 100 100 ENE 13 20 30.07 1018 1 1.60934 0 0
3:55 am 03:55 Cloudy with Mist and Fog 28 -2.1 28 -2.1 100 100 ENE 10 17 30.08 1019 0.75 1.207005 0 0
4:15 am 04:15 Cloudy with Mist and Fog 28 -2.1 28 -2.1 100 100 ENE 10 17 30.08 1019 0.75 1.207005 0 0
4:35 am 04:35 Cloudy with Freezing Fog 28 -2.5 28 -2.5 100 100 NE 12 19 30.09 1019 0.5 0.80467 0 0
4:55 am 04:55 Cloudy with Freezing Fog 27 -2.7 27 -2.7 100 100 NE 10 17 30.09 1019 0.5 0.80467 0 0
5:15 am 05:15 Cloudy with Freezing Fog 27 -3 27 -3 100 100 NE 10 17 30.09 1019 0.5 0.80467 0 0
5:35 am 05:35 Cloudy with Mist and Fog 27 -2.8 27 -2.8 100 100 NNE 10 17 30.11 1020 0.75 1.207005 0 0
5:55 am 05:55 Cloudy with Mist and Fog 27 -2.8 27 -2.8 100 100 NE 12 19 30.12 1020 1 1.60934 0 0
6:15 am 06:15 Cloudy with Mist and Fog 27 -3 27 -3 100 100 NE 13 20 30.12 1020 1.25 2.011675 0 0
6:35 am 06:35 Cloudy with Mist and Fog 27 -3 27 -3 100 100 NNE 14 22 30.12 1020 1.75 2.816345 0 0
6:55 am 06:55 Cloudy with Mist and Fog 26 -3.4 26 -3.4 100 100 NE 14 22 30.13 1020 2.5 4.02335 0 0
7:15 am 07:15 Cloudy with Mist and Fog 26 -3.3 26 -3.3 100 100 NE 13 20 30.14 1021 1.75 2.816345 0 0
7:35 am 07:35 Cloudy with Mist and Fog 26 -3.5 26 -3.5 100 100 NE 13 20 30.15 1021 3 4.82802 0 0
7:55 am 07:55 Cloudy with Mist and Fog 26 -3.5 26 -3.5 100 100 NNE 14 22 30.16 1021 4 6.43736 0 0
8:15 am 08:15 Cloudy with Mist and Fog 25 -3.7 25 -3.7 100 100 NNE 15 24 30.17 1022 4 6.43736 0 0
8:35 am 08:35 Cloudy with Mist and Fog 25 -4 25 -4 100 100 NNE 15 24 30.18 1022 4 6.43736 0 0
8:55 am 08:55 Cloudy with Mist and Fog 25 -3.8 25 -3.8 100 100 NNE 14 22 30.17 1022 2 3.21868 0 0
9:15 am 09:15 Cloudy with Mist and Fog 25 -3.8 25 -3.8 100 100 NE 14 22 30.19 1022 2 3.21868 0 0
9:35 am 09:35 Cloudy with Mist and Fog 25 -3.8 25 -3.8 100 100 NNE 17 28 30.2 1023 2 3.21868 0 0
9:55 am 09:55 Cloudy with Mist and Fog 25 -3.8 25 -3.8 100 100 NE 14 22 30.21 1023 3 4.82802 0 0
10:15 am 10:15 Cloudy with Mist and Fog 25 -4 25 -4 100 100 NNE 16 26 30.25 1025 3 4.82802 0 0
10:35 am 10:35 Cloudy with Mist and Fog 25 -4 25 -4 100 100 NNE 14 22 30.27 1025 4 6.43736 0 0
10:55 am 10:55 Cloudy with Mist and Fog 25 -4.1 25 -4.1 100 100 NNE 14 22 30.28 1025 5 8.0467 0 0
11:15 am 11:15 Cloudy with Mist and Fog 24 -4.2 24 -4.2 100 100 NNE 17 28 30.27 1025 5 8.0467 0 0
11:35 am 11:35 Cloudy 24 -4.5 24 -4.5 100 100 NNE 16 26 30.26 1025 7 11.26538 0 0
11:55 am 11:55 Cloudy with Mist and Fog 23 -4.8 23 -4.8 100 100 N 22 35 30.25 1024 5 8.0467 0 0
12:15 pm 12:15 Cloudy with Mist and Fog 23 -5 23 -5 100 100 N 22 35 30.24 1024 5 8.0467 0 0
12:35 pm 12:35 Cloudy 22 -5.5 22 -5.6 99 99 N 22 35 30.25 1024 7 11.26538 0 0
12:55 pm 12:55 Cloudy 22 -5.5 22 -5.6 99 99 N 24 39 30.25 1024 10 16.0934 0 0
1:15 pm 13:15 Cloudy 22 -5.7 21 -6 98 98 N 21 33 30.25 1024 10 16.0934 0 0
1:35 pm 13:35 Cloudy 23 -5.1 20 -6.9 87 87 N 24 39 30.25 1024 10 16.0934 0 0
1:55 pm 13:55 Cloudy 22 -5.6 18 -8 83 83 N 24 39 30.26 1025 10 16.0934 0 0
2:15 pm 14:15 Cloudy 22 -5.7 17 -8.2 83 83 N 24 39 30.25 1024 10 16.0934 0 0
2:35 pm 14:35 Cloudy 21 -6.3 15 -9.2 80 80 N 23 37 30.27 1025 10 16.0934 0 0
2:55 pm 14:55 Cloudy 20 -6.4 15 -9.4 80 80 N 25 41 30.28 1025 10 16.0934 0 0
3:15 pm 15:15 Windy with Snow Likely 20 -6.5 15 -9.2 81 81 N 26 43 30.29 1026 7 11.26538 0 0
3:35 pm 15:35 Windy with Snow Likely 19 -7 15 -9.7 81 81 N 23 37 30.31 1027 7 11.26538 0 0
3:55 pm 15:55 Cloudy 20 -6.8 14 -9.8 79 79 N 24 39 30.32 1027 10 16.0934 0 0
4:15 pm 16:15 Partly Cloudy 19 -7.1 14 -10.2 79 79 N 28 44 30.35 1028 10 16.0934 0 0
4:35 pm 16:35 Partly Cloudy with Scattered Snow Showers 19 -7.5 13 -10.3 81 81 N 26 43 30.36 1028 10 16.0934 0 0
4:55 pm 16:55 Mostly Cloudy with Scattered Snow Showers 18 -7.6 14 -10.2 82 82 N 23 37 30.37 1028 10 16.0934 0 0
5:15 pm 17:15 Partly Cloudy 18 -8 13 -10.6 82 82 N 22 35 30.35 1028 10 16.0934 0 0
5:35 pm 17:35 Partly Cloudy 17 -8.2 12 -11 80 80 N 21 33 30.34 1027 10 16.0934 0 0
5:55 pm 17:55 Partly Cloudy 17 -8.5 12 -11.2 81 81 N 23 37 30.34 1027 10 16.0934 0 0
6:15 pm 18:15 Partly Cloudy 17 -8.6 12 -11 83 83 N 18 30 30.36 1028 10 16.0934 0 0
6:35 pm 18:35 Mostly Cloudy 17 -8.6 12 -11 83 83 N 20 31 30.37 1028 10 16.0934 0 0
6:55 pm 18:55 Cloudy 16 -8.7 12 -11 84 84 N 21 33 30.39 1029 10 16.0934 0 0
7:15 pm 19:15 Cloudy 16 -9.1 11 -11.5 83 83 N 22 35 30.42 1030 10 16.0934 0 0
7:35 pm 19:35 Mostly Cloudy 15 -9.5 11 -11.8 84 84 N 22 35 30.43 1030 10 16.0934 0 0
7:55 pm 19:55 Partly Cloudy 14 -10 10 -12 85 85 N 21 33 30.44 1031 10 16.0934 0 0
8:15 pm 20:15 Clear 14 -10.1 10 -12.2 85 85 N 17 28 30.44 1031 10 16.0934 0 0
8:35 pm 20:35 Clear 13 -10.3 10 -12.5 84 84 N 13 20 30.43 1030 10 16.0934 0 0
8:55 pm 20:55 Clear 13 -10.5 9 -12.6 85 85 N 16 26 30.45 1031 10 16.0934 0 0
9:15 pm 21:15 Clear 13 -10.7 9 -13 83 83 N 15 24 30.43 1031 10 16.0934 0 0
9:35 pm 21:35 Clear 13 -10.8 9 -13 84 84 N 18 30 30.44 1031 10 16.0934 0 0
9:55 pm 21:55 Clear 12 -11 8 -13.5 82 82 N 14 22 30.44 1031 10 16.0934 0 0
10:15 pm 22:15 Clear 12 -11 8 -13.5 82 82 N 15 24 30.45 1031 10 16.0934 0 0
10:35 pm 22:35 Clear 12 -11.1 8 -13.3 84 84 NNW 14 22 30.46 1031 10 16.0934 0 0
10:55 pm 22:55 Clear 11 -11.5 8 -13.5 85 85 N 17 28 30.44 1031 10 16.0934 0 0
11:15 pm 23:15 Clear 11 -11.5 8 -13.5 85 85 N 12 19 30.43 1031 10 16.0934 0 0
11:35 pm 23:35 Clear 11 -11.5 8 -13.5 85 85 N 15 24 30.44 1031 10 16.0934 0 0
11:55 pm 23:55 Clear 11 -11.6 8 -13.6 85 85 N 14 22 30.44 1031 10 16.0934 0 0

Powered by AerisWeather